Home   Weather   Utcubamba   Past weeks
Flag for Peru

Past Weather in Utcubamba, Apurímac, Peru — Yesterday and Last 2 Weeks

Now
68 °F

Passing clouds.


Feels Like: 68 °F
Forecast: 77 / 58 °F
Wind: 5 mph from North

Location: Cuzco Airport

Current Time: Oct 21, 2019 at 11:24:16 am

Latest Report: Oct 21, 2019 at 11:00 am


Visibility: N/A

Pressure: 30.42 "Hg

Humidity: 30%

Dew Point: 36 °F

Location of UtcubambaLocation

Past Weather in Utcubamba — Graph

°F

Utcubamba Temperature Yesterday

Maximum temperature yesterday: 70 °F (at 2:00 pm)
Minimum temperature yesterday: 41 °F (at 5:00 am)
Average temperature yesterday: 56 °F

High & Low Weather Summary for the Past Weeks

 TemperatureHumidityPressure
High75 °F (Oct 8, 2:00 pm)87% (Oct 13, 8:00 pm)30.63 "Hg (Oct 13, 8:00 pm)
Low36 °F (Oct 9, 5:00 am)12% (Oct 7, 1:00 pm)30.21 "Hg (Oct 7, 3:40 pm)
Average56 °F52%30.44 "Hg
* Reported Oct 6 10:00 am — Oct 21 10:00 am, Utcubamba. Weather by CustomWeather, © 2019

Note: Actual official high and low records may vary slightly from our data, if they occured in-between our weather recording intervals... More about our weather records

Advertising

Utcubamba Weather History for the Previous 24 Hours

Scroll right to see more
 ConditionsComfort  
Time TempWeatherWind HumidityBarometerVisibility
10:00 am
Mon, Oct 21
64 °FPassing clouds.2 mph30%30.48 "HgN/A
9:30 am63 °FPassing clouds.2 mph37%30.48 "HgN/A
9:00 am61 °FPassing clouds.1 mph48%30.48 "HgN/A
8:30 am57 °FClear.2 mph51%30.48 "HgN/A
8:00 am55 °FClear.3 mph59%30.48 "HgN/A
7:30 am52 °FClear.2 mph67%30.48 "HgN/A
7:00 am50 °FClear.2 mph71%30.48 "HgN/A
6:30 am48 °FClear.2 mph76%30.48 "HgN/A
6:00 am43 °FClear.2 mph87%30.45 "HgN/A
5:30 am43 °FClear.No wind87%30.45 "HgN/A
5:00 am43 °FClear.No wind87%30.45 "HgN/A
4:00 am43 °FClear.No wind87%30.42 "HgN/A
3:00 am46 °FClear.2 mph82%30.42 "HgN/A
2:00 am46 °FClear.No wind82%30.45 "HgN/A
1:00 am48 °FClear.No wind76%30.45 "HgN/A
12:00 am48 °FClear.3 mph76%30.45 "HgN/A
11:00 pm
Sun, Oct 20
48 °FClear.6 mph76%30.45 "HgN/A
10:00 pm52 °FClear.1 mph67%30.45 "HgN/A
9:00 pm55 °FClear.5 mph55%30.45 "HgN/A
8:30 pm54 °FClear.5 mph58%30.42 "HgN/A
8:00 pm55 °FClear.8 mph59%30.39 "HgN/A
7:00 pm57 °FClear.3 mph51%30.36 "HgN/A
6:30 pm59 °FPassing clouds.6 mph48%30.33 "HgN/A
6:00 pm63 °FPassing clouds.7 mph42%30.33 "HgN/A
5:30 pm66 °FPassing clouds.5 mph30%30.30 "HgN/A
5:00 pm70 °FScattered clouds.5 mph20%30.30 "HgN/A
4:30 pm70 °FScattered clouds.8 mph20%30.30 "HgN/A
4:00 pm70 °FScattered clouds.5 mph20%30.30 "HgN/A
3:30 pm70 °FScattered clouds.5 mph18%30.30 "HgN/A
3:00 pm70 °FScattered clouds.2 mph18%30.33 "HgN/A
2:30 pm68 °FScattered clouds.3 mph21%30.36 "HgN/A
2:00 pm70 °FScattered clouds.6 mph21%30.39 "HgN/A
1:30 pm68 °FScattered clouds.3 mph26%30.39 "HgN/A
1:00 pm66 °FScattered clouds.6 mph26%30.42 "HgN/A
12:30 pm64 °FScattered clouds.8 mph30%30.45 "HgN/A
12:00 pm63 °FScattered clouds.3 mph34%30.48 "HgN/A
11:30 am63 °FScattered clouds.6 mph39%30.48 "HgN/A
11:00 am57 °FScattered clouds.3 mph44%30.51 "HgN/A
Weather by CustomWeather, © 2019

See weather overview